TimePST,TemperatureF,Dew PointF,Humidity,Sea Level PressureIn,VisibilityMPH,Wind Direction,Wind SpeedMPH,Gust SpeedMPH,PrecipitationIn,Events,Conditions,WindDirDegrees,DateUTC
12:53 AM,35.1,33.1,92,30.30,0.2,ESE,3.5,-,N/A,Fog,Fog,120,2013-01-18 08:53:00
1:53 AM,34.0,32.0,92,30.30,0.2,East,3.5,-,N/A,Fog,Fog,90,2013-01-18 09:53:00
2:19 AM,33.8,32.0,93,30.30,0.2,East,3.5,-,N/A,Fog,Fog,100,2013-01-18 10:19:00
2:53 AM,33.1,30.9,92,30.30,0.2,SE,3.5,-,N/A,Fog,Fog,140,2013-01-18 10:53:00
3:53 AM,33.1,30.9,92,30.29,0.2,NE,3.5,-,N/A,Fog,Fog,50,2013-01-18 11:53:00
4:53 AM,33.1,30.9,92,30.28,0.2,Calm,Calm,-,N/A,Fog,Fog,0,2013-01-18 12:53:00
5:53 AM,33.1,32.0,96,30.28,0.2,Calm,Calm,-,N/A,Fog,Fog,0,2013-01-18 13:53:00
6:53 AM,34.0,32.0,92,30.28,0.2,SSE,3.5,-,N/A,Fog,Fog,150,2013-01-18 14:53:00
7:53 AM,33.1,32.0,96,30.28,0.2,SSE,5.8,-,N/A,Fog,Fog,150,2013-01-18 15:53:00
8:53 AM,34.0,32.0,92,30.30,0.2,SSE,3.5,-,N/A,Fog,Fog,150,2013-01-18 16:53:00
9:53 AM,35.1,34.0,96,30.32,0.2,Calm,Calm,-,N/A,Fog,Fog,0,2013-01-18 17:53:00
10:15 AM,35.6,33.8,93,30.32,0.5,Calm,Calm,-,N/A,,Mist,0,2013-01-18 18:15:00
10:42 AM,35.6,33.8,93,30.32,1.0,Calm,Calm,-,N/A,,Overcast,0,2013-01-18 18:42:00
10:53 AM,36.0,34.0,93,30.32,1.5,Calm,Calm,-,N/A,,Overcast,0,2013-01-18 18:53:00
11:53 AM,37.0,34.0,89,30.30,1.5,Calm,Calm,-,N/A,,Overcast,0,2013-01-18 19:53:00
12:00 PM,35.6,33.8,93,30.31,2.0,Calm,Calm,-,N/A,,Overcast,0,2013-01-18 20:00:00
12:53 PM,39.0,35.1,86,30.31,3.0,Variable,3.5,-,N/A,,Overcast,0,2013-01-18 20:53:00
1:53 PM,39.9,36.0,86,30.30,4.0,NNE,3.5,-,N/A,,Overcast,30,2013-01-18 21:53:00
2:53 PM,39.9,36.0,86,30.30,4.0,Variable,4.6,-,N/A,,Overcast,0,2013-01-18 22:53:00
3:53 PM,39.9,35.1,83,30.31,7.0,NW,3.5,-,N/A,,Overcast,320,2013-01-18 23:53:00
4:53 PM,37.9,34.0,86,30.31,8.0,NW,5.8,-,N/A,,Overcast,320,2013-01-19 00:53:00
5:53 PM,37.9,33.1,83,30.32,10.0,Calm,Calm,-,N/A,,Overcast,0,2013-01-19 01:53:00
6:53 PM,37.9,33.1,83,30.32,9.0,Calm,Calm,-,N/A,,Overcast,0,2013-01-19 02:53:00
7:53 PM,37.0,33.1,86,30.32,8.0,Calm,Calm,-,N/A,,Overcast,0,2013-01-19 03:53:00
8:11 PM,35.6,33.8,93,30.33,3.0,Calm,Calm,-,N/A,,Overcast,0,2013-01-19 04:11:00
8:53 PM,36.0,33.1,89,30.34,3.0,ENE,4.6,-,N/A,,Overcast,60,2013-01-19 04:53:00
9:53 PM,35.1,32.0,89,30.35,3.0,East,3.5,-,N/A,,Overcast,80,2013-01-19 05:53:00
10:32 PM,33.8,32.0,93,30.35,1.8,NNW,3.5,-,N/A,,Overcast,340,2013-01-19 06:32:00
10:40 PM,33.8,32.0,93,30.35,3.0,NNE,3.5,-,N/A,,Overcast,20,2013-01-19 06:40:00
10:53 PM,34.0,32.0,92,30.35,4.0,Calm,Calm,-,N/A,,Overcast,0,2013-01-19 06:53:00
11:09 PM,33.8,32.0,93,30.35,1.5,NNE,3.5,-,N/A,,Overcast,20,2013-01-19 07:09:00
11:53 PM,34.0,30.9,89,30.36,1.5,Calm,Calm,-,N/A,,Overcast,0,2013-01-19 07:53:00